Stefansson Island, Nunavut

11:44 PM MDT on April 24, 2017 (GMT -0600)
Stefansson Island

Weather History for CXSE - April, 2013

Change the Weather History Date:

Sunday, April 28, 2013

  Actual Average Record
Temperature  
Mean Temperature -11 °F -  
Max Temperature -1 °F - - ()
Min Temperature -21 °F - - ()
Degree Days  
Heating Degree Days 76    
Moisture  
Dew Point -16 °F    
Average Humidity 76    
Maximum Humidity 81    
Minimum Humidity 58    
Precipitation  
Precipitation 0.00 in - - ()
Sea Level Pressure  
Sea Level Pressure 29.99 in    
Wind  
Wind Speed 6 mph ()    
Max Wind Speed 16 mph    
Max Gust Speed -    
T = Trace of Precipitation, MM = Missing Value Source: Averaged Metar Reports

Daily Weather History Graph

Daily Weather History Graph

Search for Another Location

Airport or City:

Trip Planner

Search our weather history database for the weather conditions in past years. The results will help you decide how hot, cold, wet, or windy it might be!

Date:

Astronomy

Apr. 28, 2013 Rise Set
Actual Time 2:27 AM MDT 11:41 PM MDT
Civil Twilight Sun does not set Sun does not set
Nautical Twilight Sun does not set Sun does not set
Astronomical Twilight Sun does not set Sun does not set
Moon No Moon Rise No Moon Set
Length of Visible Light 24h 00m
Length of Day
21h 13m
Waning Gibbous, 88% of the Moon is Illuminated
Apr 28
Waning Gibbous
May 2
Last Quarter
May 9
New
May 17
First Quarter
May 24
Full

Hourly Weather History & Observations

Time (MDT) Temp. Windchill Dew Point Humidity Pressure Visibility Wind Dir Wind Speed Gust Speed Precip Events Conditions
12:00 AM -10 °F - -15 °F 68% 29.99 in - East 3.5 mph - -  
12:00 AM -10.5 °F -19.8 °F -15.0 °F 80% 29.99 in - East 3.5 mph - N/A   Unknown
1:00 AM -11.6 °F - -16.1 °F 80% 29.99 in - ENE 2.3 mph - N/A   Unknown
2:00 AM -18.9 °F - -24.7 °F 75% 29.99 in - South 1.2 mph - N/A   Unknown
4:00 AM -18.0 °F - -24.0 °F 74% 30.00 in - NW 2.3 mph - N/A   Unknown
5:00 AM -21.6 °F - -27.4 °F 75% 30.00 in - SW 1.2 mph - N/A   Unknown
6:00 AM -20 °F - -26 °F 58% 30.00 in - WSW 3.5 mph - -  
6:00 AM -20.2 °F -30.9 °F -26.3 °F 73% 30.00 in - WSW 3.5 mph - N/A   Unknown
7:00 AM -19.5 °F -36.4 °F -24.7 °F 77% 30.00 in - WSW 6.9 mph - N/A   Unknown
8:00 AM -17.3 °F -30.1 °F -22.9 °F 76% 30.00 in - WNW 4.6 mph - N/A   Unknown
10:00 AM -14.3 °F -30.1 °F -19.7 °F 77% 29.99 in - WSW 6.9 mph - N/A   Unknown
11:00 AM -11.4 °F -28.0 °F -17.0 °F 76% 29.99 in - WSW 8.1 mph - N/A   Unknown
12:00 PM -8 °F - -14 °F 64% 29.99 in - West 9.2 mph - -  
12:00 PM -8.5 °F -25.7 °F -13.7 °F 78% 29.99 in - West 9.2 mph - N/A   Unknown
1:00 PM -8.5 °F -26.8 °F -13.7 °F 78% 29.99 in - WNW 10.4 mph - N/A   Unknown
2:00 PM -6.2 °F -23.9 °F -11.0 °F 79% 29.99 in - WNW 10.4 mph - N/A   Unknown
3:00 PM -4.4 °F -22.6 °F -9.2 °F 80% 29.99 in - WNW 11.5 mph - N/A   Unknown
4:00 PM -4.2 °F -22.3 °F -9.2 °F 79% 30.00 in - WNW 11.5 mph - N/A   Unknown
5:00 PM -2.6 °F -20.3 °F -7.1 °F 81% 30.00 in - West 11.5 mph - N/A   Unknown
6:00 PM -2 °F - -6 °F 73% 29.99 in - West 13.8 mph - -  
6:00 PM -1.8 °F -21.0 °F -6.3 °F 81% 29.99 in - West 13.8 mph - N/A   Unknown
7:00 PM -3.3 °F -22.1 °F -8.0 °F 80% 29.99 in - West 12.7 mph - N/A   Unknown
8:00 PM -6.2 °F -26.5 °F -10.7 °F 81% 29.99 in - West 13.8 mph - N/A   Unknown
9:00 PM -8.1 °F -30.5 °F -12.5 °F 81% 29.99 in - West 16.1 mph - N/A   Unknown
10:00 PM -9.4 °F -31.4 °F -13.7 °F 81% 30.00 in - West 15.0 mph - N/A   Unknown
11:00 PM -10.3 °F -33.3 °F -14.8 °F 81% 30.00 in - West 16.1 mph - N/A   Unknown